Weather History for Berlin, NH

Change the Weather History Date:

Monday, April 21, 2014

  Actual Average Record
Temperature  
Mean Temperature 52 °F -  
Max Temperature 72 °F 51 °F 75 °F (2008)
Min Temperature 32 °F 24 °F 19 °F (2001)
Degree Days  
Heating Degree Days 13    
Growing Degree Days 2 (Base 50)    
Moisture  
Dew Point 31 °F    
Average Humidity 53    
Maximum Humidity 82    
Minimum Humidity 22    
Precipitation  
Precipitation 0.00 in - - ()
Sea Level Pressure  
Sea Level Pressure 30.00 in    
Wind  
Wind Speed 2 mph (SW)    
Max Wind Speed 12 mph    
Max Gust Speed 18 mph    
Visibility 10 miles    
Events      
Averages and records for this station are not official NWS values.
T = Trace of Precipitation, MM = Missing Value Source: NWS Daily Summary

Daily Weather History Graph

Daily Weather History Graph

Search for Another Location

Airport:

Trip Planner

Search our weather history database for the weather conditions in past years. The results will help you decide how hot, cold, wet, or windy it might be!

Date:

Astronomy

Apr. 21, 2014 Rise Set
Actual Time 5:50 AM EDT 7:36 PM EDT
Civil Twilight 5:19 AM EDT 8:08 PM EDT
Nautical Twilight 4:41 AM EDT 8:45 PM EDT
Astronomical Twilight 4:01 AM EDT 9:27 PM EDT
Moon 1:08 AM EDT (4/21) 11:10 AM EDT (4/21)
Length of Visible Light 14h 48m
Length of Day
13h 46m
Waning Gibbous, 58% of the Moon is Illuminated
Apr 21
Waning Gibbous
Apr 22
Last Quarter
Apr 29
New
May 6
First Quarter
May 14
Full

Hourly Weather History & Observations

Time (EDT) Temp. Windchill Dew Point Humidity Pressure Visibility Wind Dir Wind Speed Gust Speed Precip Events Conditions
12:52 AM 35.1 °F - 27.0 °F 72% 30.24 in 10.0 mi Calm Calm - N/A   Clear
1:52 AM 36.0 °F - 27.0 °F 70% 30.21 in 10.0 mi Calm Calm - N/A   Mostly Cloudy
2:52 AM 34.0 °F 31.0 °F 26.1 °F 73% 30.19 in 9.0 mi SE 3.5 mph - N/A   Scattered Clouds
3:52 AM 33.1 °F - 27.0 °F 78% 30.17 in 10.0 mi Calm Calm - N/A   Clear
4:52 AM 32.0 °F - 27.0 °F 82% 30.15 in 9.0 mi Calm Calm - N/A   Partly Cloudy
5:52 AM 34.0 °F 31.0 °F 28.0 °F 79% 30.14 in 10.0 mi West 3.5 mph - N/A   Overcast
6:52 AM 36.0 °F 33.3 °F 28.0 °F 73% 30.14 in 10.0 mi South 3.5 mph - N/A   Overcast
7:52 AM 39.0 °F 36.8 °F 28.9 °F 67% 30.13 in 10.0 mi South 3.5 mph - N/A   Overcast
8:52 AM 43.0 °F - 28.0 °F 56% 30.12 in 10.0 mi Calm Calm - N/A   Overcast
9:52 AM 48.0 °F - 27.0 °F 44% 30.09 in 10.0 mi South 3.5 mph - N/A   Overcast
10:52 AM 50.0 °F - 28.0 °F 43% 30.07 in 10.0 mi Calm Calm - N/A   Overcast
11:52 AM 54.0 °F - 27.0 °F 35% 30.04 in 5.0 mi Calm Calm - N/A   Haze
12:52 PM 62.1 °F - 28.9 °F 29% 29.98 in 10.0 mi North 3.5 mph - N/A   Mostly Cloudy
1:52 PM 64.0 °F - 30.0 °F 28% 29.95 in 10.0 mi NNW 6.9 mph - N/A   Overcast
2:52 PM 70.0 °F - 34.0 °F 27% 29.91 in 10.0 mi West 8.1 mph - N/A   Clear
3:52 PM 71.1 °F - 32.0 °F 24% 29.87 in 10.0 mi SSW 11.5 mph 18.4 mph N/A   Scattered Clouds
4:52 PM 72.0 °F - 30.9 °F 22% 29.85 in 10.0 mi Variable 6.9 mph - N/A   Clear
5:52 PM 69.1 °F - 30.9 °F 24% 29.83 in 10.0 mi SSW 6.9 mph - N/A   Mostly Cloudy
6:52 PM 66.9 °F - 28.9 °F 24% 29.83 in 10.0 mi West 4.6 mph - N/A   Overcast
7:52 PM 55.9 °F - 39.0 °F 53% 29.84 in 10.0 mi Calm Calm - N/A   Overcast
8:52 PM 54.0 °F - 39.0 °F 57% 29.84 in 10.0 mi Calm Calm - N/A   Overcast
9:52 PM 51.1 °F - 39.9 °F 66% 29.83 in 10.0 mi Calm Calm - N/A   Overcast
10:52 PM 48.9 °F - 41.0 °F 74% 29.81 in 10.0 mi Calm Calm - N/A   Overcast
11:52 PM 48.0 °F - 37.9 °F 68% 29.80 in 10.0 mi Calm Calm - N/A   Overcast